Location: Archemont
(49.1579°N, 1.7598°E)
Time: 09:26:48
(UTC+00:00)

Altair - Pass Details

Date: 25 April 2024
Orbit: 1501 x 1682 km, 47.2° (Epoch: 17 May)

Event Time Altitude Azimuth Distance (km) Brightness Sun altitude
Rises 23:35:56 0° 289° (WNW) 4,861 10.4 -27.2°
Reaches altitude 10° 23:39:23 10° 282° (WNW) 3,847 9.7 -27.2°
Enters shadow 23:47:52 37° 222° (SW) 2,271 8.0 -27.2°
Maximum altitude 23:47:59 37° 220° (SW) 2,270 - -27.2°
Drops below altitude 10° 23:56:19 10° 157° (SSE) 3,708 - -27.2°
Sets 23:59:36 0° 150° (SSE) 4,668 - -27.2°
